TimeCST,TemperatureF,Dew PointF,Humidity,Sea Level PressureIn,VisibilityMPH,Wind Direction,Wind SpeedMPH,Gust SpeedMPH,PrecipitationIn,Events,Conditions,WindDirDegrees,DateUTC
12:13 AM,-25.6,-31.0,76,29.94,10.0,Calm,Calm,-,N/A,,Clear,0,2013-02-04 06:13:00
12:32 AM,-25.6,-32.8,69,29.94,10.0,Calm,Calm,-,N/A,,Clear,0,2013-02-04 06:32:00
12:53 AM,-25.6,-32.8,69,-9999,10.0,Calm,Calm,-,N/A,,Clear,0,2013-02-04 06:53:00
1:13 AM,-25.6,-32.8,69,-9999,10.0,Calm,Calm,-,N/A,,Clear,0,2013-02-04 07:13:00
1:33 AM,-25.6,-32.8,69,-9999,10.0,Calm,Calm,-,N/A,,Clear,0,2013-02-04 07:33:00
1:52 AM,-25.6,-32.8,69,-9999,10.0,Calm,Calm,-,N/A,,Clear,0,2013-02-04 07:52:00
2:13 AM,-27.4,-34.6,69,-9999,10.0,Calm,Calm,-,N/A,,Clear,0,2013-02-04 08:13:00
2:33 AM,-27.4,-34.6,69,-9999,10.0,Calm,Calm,-,N/A,,Clear,0,2013-02-04 08:33:00
2:52 AM,-29.2,-34.6,75,-9999,10.0,Calm,Calm,-,N/A,,Clear,0,2013-02-04 08:52:00
3:13 AM,-29.2,-34.6,75,-9999,10.0,Calm,Calm,-,N/A,,Clear,0,2013-02-04 09:13:00
4:53 AM,-31.0,-38.2,68,-9999,10.0,Calm,Calm,-,N/A,,Clear,0,2013-02-04 10:53:00
5:13 AM,-31.0,-38.2,68,-9999,10.0,Calm,Calm,-,N/A,,Clear,0,2013-02-04 11:13:00
5:32 AM,-32.8,-38.2,75,-9999,10.0,Calm,Calm,-,N/A,,Clear,0,2013-02-04 11:32:00
5:53 AM,-32.8,-38.2,75,-9999,10.0,Calm,Calm,-,N/A,,Clear,0,2013-02-04 11:53:00
6:13 AM,-32.8,-40.0,68,-9999,10.0,Calm,Calm,-,N/A,,Clear,0,2013-02-04 12:13:00
6:32 AM,-32.8,-40.0,68,-9999,10.0,Calm,Calm,-,N/A,,Clear,0,2013-02-04 12:32:00
6:53 AM,-32.8,-40.0,68,-9999,10.0,Calm,Calm,-,N/A,,Clear,0,2013-02-04 12:53:00
7:13 AM,-32.8,-40.0,68,-9999,10.0,Calm,Calm,-,N/A,,Clear,0,2013-02-04 13:13:00
7:32 AM,-32.8,-40.0,68,-9999,10.0,Calm,Calm,-,N/A,,Clear,0,2013-02-04 13:32:00
7:53 AM,-34.6,-41.8,68,-9999,10.0,Calm,Calm,-,N/A,,Clear,0,2013-02-04 13:53:00
8:13 AM,-32.8,-38.2,75,-9999,10.0,Calm,Calm,-,N/A,,Clear,0,2013-02-04 14:13:00
8:32 AM,-29.2,-36.4,68,-9999,10.0,Calm,Calm,-,N/A,,Clear,0,2013-02-04 14:32:00
8:53 AM,-25.6,-32.8,69,-9999,10.0,Calm,Calm,-,N/A,,Clear,0,2013-02-04 14:53:00
9:13 AM,-18.4,-23.8,76,-9999,10.0,West,3.5,-,N/A,,Clear,260,2013-02-04 15:13:00
9:33 AM,-14.8,-20.2,77,29.94,10.0,Calm,Calm,-,N/A,,Mostly Cloudy,0,2013-02-04 15:33:00
9:52 AM,-11.2,-16.6,77,29.94,7.0,Calm,Calm,-,N/A,,Mostly Cloudy,0,2013-02-04 15:52:00
10:13 AM,-9.4,-14.8,77,29.94,4.0,Calm,Calm,-,N/A,,Haze,0,2013-02-04 16:13:00
10:33 AM,-7.6,-11.2,84,29.94,5.0,Calm,Calm,-,N/A,Snow,Light Snow,0,2013-02-04 16:33:00
10:52 AM,-5.8,-11.2,77,29.94,5.0,WNW,5.8,-,N/A,Snow,Light Snow,300,2013-02-04 16:52:00
11:13 AM,-2.2,-9.4,71,29.93,7.0,West,3.5,-,N/A,Snow,Light Snow,280,2013-02-04 17:13:00
11:33 AM,-2.2,-9.4,71,29.92,5.0,Calm,Calm,-,N/A,Snow,Light Snow,0,2013-02-04 17:33:00
11:52 AM,-2.2,-9.4,71,29.91,10.0,Calm,Calm,-,N/A,,Unknown,0,2013-02-04 17:52:00
12:13 PM,-0.4,-9.4,66,29.90,10.0,SW,3.5,-,N/A,,Clear,230,2013-02-04 18:13:00
12:33 PM,1.4,-9.4,61,29.89,10.0,West,5.8,-,N/A,,Clear,260,2013-02-04 18:33:00
12:52 PM,1.4,-9.4,61,29.88,10.0,WSW,4.6,-,N/A,,Clear,250,2013-02-04 18:52:00
1:13 PM,1.4,-9.4,61,29.87,10.0,West,5.8,-,N/A,,Clear,280,2013-02-04 19:13:00
1:33 PM,1.4,-9.4,61,29.85,10.0,West,4.6,-,N/A,,Clear,260,2013-02-04 19:33:00
1:52 PM,3.2,-9.4,56,29.85,10.0,SW,5.8,-,N/A,,Clear,230,2013-02-04 19:52:00
2:13 PM,3.2,-7.6,61,29.85,10.0,SSW,6.9,-,N/A,,Clear,210,2013-02-04 20:13:00
2:33 PM,3.2,-7.6,61,29.84,10.0,Calm,Calm,-,N/A,,Scattered Clouds,0,2013-02-04 20:33:00
2:52 PM,3.2,-7.6,61,29.84,10.0,SW,3.5,-,N/A,,Mostly Cloudy,220,2013-02-04 20:52:00
3:13 PM,5.0,-7.6,56,29.84,10.0,WSW,3.5,-,N/A,,Overcast,250,2013-02-04 21:13:00
3:33 PM,3.2,-7.6,61,29.83,10.0,WSW,6.9,-,N/A,,Overcast,240,2013-02-04 21:33:00
3:52 PM,3.2,-7.6,61,29.82,10.0,SW,6.9,-,N/A,,Overcast,230,2013-02-04 21:52:00
4:13 PM,3.2,-7.6,61,29.81,10.0,SW,9.2,-,N/A,,Overcast,230,2013-02-04 22:13:00
4:33 PM,3.2,-7.6,61,29.80,10.0,SW,5.8,-,N/A,,Overcast,230,2013-02-04 22:33:00
4:52 PM,3.2,-5.8,66,29.79,10.0,SSW,5.8,-,N/A,,Overcast,200,2013-02-04 22:52:00
5:13 PM,3.2,-5.8,66,29.78,10.0,SSW,4.6,-,N/A,,Overcast,210,2013-02-04 23:13:00
5:33 PM,3.2,-5.8,66,29.77,10.0,SSW,4.6,-,N/A,,Overcast,200,2013-02-04 23:33:00
5:53 PM,3.2,-5.8,66,29.77,10.0,SSW,3.5,-,N/A,,Overcast,200,2013-02-04 23:53:00
6:12 PM,3.2,-5.8,66,29.75,10.0,South,3.5,-,N/A,,Overcast,170,2013-02-05 00:12:00
6:33 PM,3.2,-5.8,66,29.76,10.0,SSW,3.5,-,N/A,,Overcast,200,2013-02-05 00:33:00
6:53 PM,3.2,-5.8,66,29.76,10.0,SSW,3.5,-,N/A,,Overcast,210,2013-02-05 00:53:00
7:12 PM,3.2,-5.8,66,29.75,10.0,SSW,3.5,-,N/A,,Overcast,200,2013-02-05 01:12:00
7:33 PM,3.2,-5.8,66,29.75,10.0,South,3.5,-,N/A,,Overcast,180,2013-02-05 01:33:00
7:53 PM,3.2,-7.6,61,29.73,10.0,South,3.5,-,N/A,,Overcast,180,2013-02-05 01:53:00
8:12 PM,3.2,-5.8,66,29.72,10.0,Calm,Calm,-,N/A,,Overcast,0,2013-02-05 02:12:00
8:33 PM,3.2,-7.6,61,29.72,10.0,South,4.6,-,N/A,,Overcast,170,2013-02-05 02:33:00
8:53 PM,3.2,-7.6,61,29.71,10.0,South,4.6,-,N/A,,Overcast,180,2013-02-05 02:53:00
9:12 PM,5.0,-5.8,61,29.70,10.0,South,5.8,-,N/A,,Overcast,170,2013-02-05 03:12:00
9:33 PM,5.0,-7.6,56,29.69,10.0,South,4.6,-,N/A,,Overcast,180,2013-02-05 03:33:00
9:53 PM,5.0,-5.8,61,29.69,5.0,South,3.5,-,N/A,Snow,Light Snow,180,2013-02-05 03:53:00
10:12 PM,5.0,-4.0,66,29.68,4.0,South,3.5,-,N/A,Snow,Light Snow,170,2013-02-05 04:12:00
10:27 PM,5.0,-2.2,72,29.66,3.0,SSE,4.6,-,N/A,Snow,Light Snow,160,2013-02-05 04:27:00
10:53 PM,3.2,-0.4,85,29.65,1.8,SSE,4.6,-,N/A,Snow,Light Snow,160,2013-02-05 04:53:00
11:13 PM,3.2,-0.4,85,29.63,1.5,South,6.9,-,N/A,Snow,Light Snow,170,2013-02-05 05:13:00
11:33 PM,5.0,1.4,85,29.61,1.2,SSE,6.9,-,N/A,Snow,Light Snow,160,2013-02-05 05:33:00
11:52 PM,5.0,1.4,85,29.59,1.2,SSE,8.1,-,N/A,Snow,Light Snow,150,2013-02-05 05:52:00